Weather History for Taylorville, IL

Change the Weather History Date:

Wednesday, January 29, 2014

  Actual Average (KSPI) Record (KSPI)
Temperature  
Mean Temperature 18 °F 27 °F  
Max Temperature 30 °F 36 °F 64 °F (2008)
Min Temperature 5 °F 19 °F -11 °F (1966)
Degree Days  
Heating Degree Days 48 38  
Month to date heating degree days 1109  
Since 1 July heating degree days 3249  
Cooling Degree Days 0 0  
Month to date cooling degree days 0  
Year to date cooling degree days 0  
Moisture  
Dew Point 3 °F    
Average Humidity 53    
Maximum Humidity 72    
Minimum Humidity 32    
Precipitation  
Precipitation 0.00 in 0.05 in 1.32 in (2013)
Month to date precipitation 1.71  
Year to date precipitation 1.71  
Snow  
Snow 0.00 in 0.20 in 4.80 in (2000)
Month to date snowfall 6.0  
Since 1 July snowfall 12.2  
Snow Depth -    
Sea Level Pressure  
Sea Level Pressure 30.23 in    
Wind  
Wind Speed 10 mph (SSW)    
Max Wind Speed 22 mph    
Max Gust Speed 29 mph    
Visibility 10 miles    
Events      
T = Trace of Precipitation, MM = Missing Value Source: NWS Daily Summary

Daily Weather History Graph

Daily Weather History Graph

Search for Another Location

Airport:

Trip Planner

Search our weather history database for the weather conditions in past years. The results will help you decide how hot, cold, wet, or windy it might be!

Date:

Astronomy

Jan. 29, 2014 Rise Set
Actual Time 7:07 AM CST 5:13 PM CST
Civil Twilight 6:38 AM CST 5:42 PM CST
Nautical Twilight 6:06 AM CST 6:14 PM CST
Astronomical Twilight 5:34 AM CST 6:46 PM CST
Moon 5:44 AM CST (1/29) 4:13 PM CST (1/29)
Length of Visible Light 11h 03m
Length of Day
10h 06m
Waning Crescent, 2% of the Moon is Illuminated
Jan 29
Waning Crescent
Jan 30
New
Feb 6
First Quarter
Feb 14
Full
Feb 22
Last Quarter

Hourly Weather History & Observations

Time (CST) Temp. Windchill Dew Point Humidity Pressure Visibility Wind Dir Wind Speed Gust Speed Precip Events Conditions
12:15 AM 8.6 °F -2.6 °F -2.2 °F 62% 30.33 in 10.0 mi SW 6.9 mph - N/A   Clear
12:35 AM 6.8 °F -5.9 °F -0.4 °F 72% 30.32 in 10.0 mi SSW 8.1 mph - N/A   Clear
12:55 AM 6.8 °F -4.8 °F -2.2 °F 67% 30.32 in 10.0 mi SSW 6.9 mph - N/A   Clear
1:15 AM 5.0 °F -5.6 °F -2.2 °F 72% 30.32 in 10.0 mi South 5.8 mph - N/A   Clear
1:35 AM 6.8 °F -6.9 °F -2.2 °F 67% 30.31 in 10.0 mi SSW 9.2 mph - N/A   Clear
1:55 AM 6.8 °F -6.9 °F -2.2 °F 67% 30.31 in 10.0 mi SSW 9.2 mph - N/A   Clear
2:15 AM 8.6 °F -4.7 °F -2.2 °F 62% 30.31 in 10.0 mi SSW 9.2 mph - N/A   Clear
2:35 AM 8.6 °F -3.7 °F -2.2 °F 62% 30.31 in 10.0 mi SSW 8.1 mph - N/A   Clear
2:55 AM 6.8 °F -4.8 °F -2.2 °F 67% 30.31 in 10.0 mi SSW 6.9 mph - N/A   Clear
3:15 AM 6.8 °F -5.9 °F -0.4 °F 72% 30.30 in 10.0 mi SSW 8.1 mph - N/A   Clear
3:35 AM 6.8 °F -4.8 °F -0.4 °F 72% 30.29 in 10.0 mi SSW 6.9 mph - N/A   Clear
3:55 AM 6.8 °F -4.8 °F -0.4 °F 72% 30.28 in 10.0 mi SSW 6.9 mph - N/A   Clear
4:15 AM 6.8 °F -4.8 °F -0.4 °F 72% 30.28 in 10.0 mi SSW 6.9 mph - N/A   Clear
4:35 AM 6.8 °F -4.8 °F -0.4 °F 72% 30.28 in 10.0 mi SSW 6.9 mph - N/A   Clear
4:55 AM 6.8 °F -5.9 °F -0.4 °F 72% 30.29 in 10.0 mi SSW 8.1 mph - N/A   Clear
5:15 AM 6.8 °F -4.8 °F -0.4 °F 72% 30.29 in 10.0 mi SSW 6.9 mph - N/A   Clear
5:35 AM 6.8 °F -4.8 °F -0.4 °F 72% 30.29 in 10.0 mi SSW 6.9 mph - N/A   Clear
5:55 AM 8.6 °F -2.6 °F -0.4 °F 67% 30.28 in 10.0 mi SW 6.9 mph - N/A   Clear
6:15 AM 8.6 °F -3.7 °F -0.4 °F 67% 30.29 in 10.0 mi SW 8.1 mph - N/A   Clear
6:35 AM 8.6 °F -3.7 °F -0.4 °F 67% 30.29 in 10.0 mi SW 8.1 mph - N/A   Clear
6:55 AM 8.6 °F -4.7 °F -0.4 °F 67% 30.29 in 10.0 mi SW 9.2 mph - N/A   Clear
7:15 AM 8.6 °F -4.7 °F -0.4 °F 67% 30.29 in 10.0 mi SW 9.2 mph - N/A   Clear
7:35 AM 10.4 °F -1.5 °F -0.4 °F 62% 30.29 in 10.0 mi SW 8.1 mph - N/A   Clear
7:55 AM 10.4 °F -1.5 °F 1.4 °F 67% 30.30 in 10.0 mi SW 8.1 mph - N/A   Clear
8:15 AM 12.2 °F -0.2 °F 1.4 °F 62% 30.31 in 10.0 mi SSW 9.2 mph - N/A   Clear
8:35 AM 14.0 °F 1.2 °F 1.4 °F 57% 30.31 in 10.0 mi SW 10.4 mph - N/A   Clear
8:55 AM 15.8 °F 4.2 °F 3.2 °F 58% 30.31 in 10.0 mi SW 9.2 mph - N/A   Clear
9:15 AM 17.6 °F 6.4 °F 3.2 °F 53% 30.31 in 10.0 mi WSW 9.2 mph - N/A   Clear
9:35 AM 19.4 °F 10.4 °F 3.2 °F 49% 30.31 in 10.0 mi WSW 6.9 mph 10.4 mph N/A   Clear
9:55 AM 19.4 °F 8.6 °F 5.0 °F 54% 30.31 in 10.0 mi WSW 9.2 mph - N/A   Clear
10:15 AM 21.2 °F 10.9 °F 5.0 °F 50% 30.30 in 10.0 mi WSW 9.2 mph - N/A   Clear
10:35 AM 23.0 °F 12.4 °F 5.0 °F 46% 30.30 in 10.0 mi West 10.4 mph - N/A   Clear
10:55 AM 24.8 °F 15.3 °F 5.0 °F 43% 30.29 in 10.0 mi SW 9.2 mph - N/A   Clear
11:15 AM 26.6 °F 16.2 °F 5.0 °F 40% 30.28 in 10.0 mi WSW 11.5 mph - N/A   Clear
11:35 AM 26.6 °F 15.2 °F 5.0 °F 40% 30.28 in 10.0 mi SW 13.8 mph 17.3 mph N/A   Clear
11:55 AM 28.4 °F 17.0 °F 5.0 °F 37% 30.26 in 10.0 mi SSW 15.0 mph 19.6 mph N/A   Clear
12:15 PM 28.4 °F 17.0 °F 6.8 °F 40% 30.26 in 10.0 mi SW 15.0 mph 24.2 mph N/A   Clear
12:35 PM 28.4 °F 16.2 °F 5.0 °F 37% 30.25 in 10.0 mi SW 17.3 mph 21.9 mph N/A   Clear
12:55 PM 28.4 °F 17.0 °F 5.0 °F 37% 30.24 in 10.0 mi SW 15.0 mph 24.2 mph N/A   Clear
1:15 PM 30.2 °F 17.8 °F 5.0 °F 34% 30.24 in 10.0 mi SW 19.6 mph - N/A   Clear
1:35 PM 30.2 °F 18.9 °F 5.0 °F 34% 30.23 in 10.0 mi SW 16.1 mph 23.0 mph N/A   Clear
1:55 PM 30.2 °F 18.9 °F 5.0 °F 34% 30.22 in 10.0 mi SW 16.1 mph 23.0 mph N/A   Clear
2:15 PM 30.2 °F 17.1 °F 5.0 °F 34% 30.21 in 10.0 mi SSW 21.9 mph 27.6 mph N/A   Clear
2:35 PM 30.2 °F 18.1 °F 5.0 °F 34% 30.21 in 10.0 mi SSW 18.4 mph 25.3 mph N/A   Clear
2:55 PM 30.2 °F 19.8 °F 3.2 °F 32% 30.21 in 10.0 mi SW 13.8 mph 23.0 mph N/A   Clear
3:15 PM 30.2 °F 18.5 °F 5.0 °F 34% 30.21 in 10.0 mi SSW 17.3 mph 21.9 mph N/A   Clear
3:35 PM 30.2 °F 18.1 °F 5.0 °F 34% 30.20 in 10.0 mi SW 18.4 mph 23.0 mph N/A   Clear
3:55 PM 30.2 °F 19.3 °F 5.0 °F 34% 30.20 in 10.0 mi SSW 15.0 mph - N/A   Clear
4:15 PM 30.2 °F 19.3 °F 5.0 °F 34% 30.19 in 10.0 mi SSW 15.0 mph - N/A   Clear
4:35 PM 30.2 °F 19.8 °F 5.0 °F 34% 30.20 in 10.0 mi SSW 13.8 mph 20.7 mph N/A   Clear
4:55 PM 28.4 °F 18.0 °F 5.0 °F 37% 30.19 in 10.0 mi SSW 12.7 mph - N/A   Clear
5:15 PM 28.4 °F 18.5 °F 5.0 °F 37% 30.19 in 10.0 mi South 11.5 mph - N/A   Clear
5:35 PM 26.6 °F 16.8 °F 5.0 °F 40% 30.19 in 10.0 mi South 10.4 mph - N/A   Clear
5:55 PM 26.6 °F 16.2 °F 5.0 °F 40% 30.18 in 10.0 mi South 11.5 mph - N/A   Clear
6:15 PM 24.8 °F 14.6 °F 5.0 °F 43% 30.16 in 10.0 mi South 10.4 mph - N/A   Clear
6:35 PM 24.8 °F 13.4 °F 5.0 °F 43% 30.16 in 10.0 mi South 12.7 mph - N/A   Clear
6:55 PM 23.0 °F 12.4 °F 5.0 °F 46% 30.16 in 10.0 mi SSE 10.4 mph - N/A   Clear
7:15 PM 23.0 °F 11.7 °F 5.0 °F 46% 30.15 in 10.0 mi SSE 11.5 mph - N/A   Clear
7:35 PM 23.0 °F 11.7 °F 5.0 °F 46% 30.15 in 10.0 mi SSE 11.5 mph - N/A   Clear
7:55 PM 23.0 °F 11.1 °F 5.0 °F 46% 30.14 in 10.0 mi South 12.7 mph - N/A   Clear
8:15 PM 23.0 °F 10.6 °F 5.0 °F 46% 30.14 in 10.0 mi South 13.8 mph - N/A   Clear
8:35 PM 23.0 °F 11.1 °F 5.0 °F 46% 30.14 in 10.0 mi SSE 12.7 mph 18.4 mph N/A   Clear
8:55 PM 23.0 °F 10.1 °F 6.8 °F 50% 30.13 in 10.0 mi South 15.0 mph 19.6 mph N/A   Clear
9:15 PM 23.0 °F 8.3 °F 8.6 °F 54% 30.12 in 10.0 mi South 19.6 mph 24.2 mph N/A   Clear
9:35 PM 23.0 °F 9.2 °F 8.6 °F 54% 30.11 in 10.0 mi South 17.3 mph 25.3 mph N/A   Clear
9:55 PM 23.0 °F 8.0 °F 8.6 °F 54% 30.11 in 10.0 mi South 20.7 mph 28.8 mph N/A   Clear
10:15 PM 23.0 °F 8.3 °F 8.6 °F 54% 30.11 in 10.0 mi South 19.6 mph 26.5 mph N/A   Clear
10:35 PM 23.0 °F 8.7 °F 8.6 °F 54% 30.11 in 10.0 mi South 18.4 mph 24.2 mph N/A   Clear
10:55 PM 21.2 °F 6.8 °F 8.6 °F 58% 30.11 in 10.0 mi South 17.3 mph 23.0 mph N/A   Clear
11:15 PM 21.2 °F 6.8 °F 8.6 °F 58% 30.10 in 10.0 mi South 17.3 mph 21.9 mph N/A   Clear
11:35 PM 21.2 °F 6.4 °F 8.6 °F 58% 30.09 in 10.0 mi South 18.4 mph 24.2 mph N/A   Clear
11:55 PM 21.2 °F 6.8 °F 8.6 °F 58% 30.08 in 10.0 mi South 17.3 mph - N/A   Clear